EHI
0 0 0 0 0 0 0 0 0 0 0 0 0 0 0 0 0 0 0 0 0 0 0 0 0 0 0 0 0 0 0 0 0 0 0 0 0 0
0 0 0 0 0 0 0 0 0 0 0 0 0 0 0 0 0 0 0 0 0 0 0 0 0 0 0 0 0 0 0 0 0 0 0 0 0 0
0 0 0 0 0 0 0 0 0 0 0 0 0 0 0 0 0 0 0 0 0 0 0 0 0 0 0 0 0 0 0 0 0 0 0 0 0 0
0 0 0 0 0 0 0 0 0 0 0 0 0 0 0 0 0 0 0 0 0 0 0 0 0 0 0 0 0 0 0 0 0 0 0 0 0 0
0 0 0 0 0 0 0 0 0 0 0 0 0 0 0 0 0 0 0 0 0 0 0 0 0 0 0 0 0 0 0 0 0 0 0 0 0 0
0 0 0 0 0 0 0 0 0 0 0 0 0 0 0 0 0 0 0 0 0 0 0 0 0 0 0 0 0 0 0 0 0 0 0 0 0 0
0 0 0 0 0 0 0 0 0 0 0 0 0 0 0 0 0 0 0 0 0 0 0 0 0 0 0 0 0 0 0 0 0 0 0 0 0 0
0 0 0 0 0 0 0 0 0 0 0 0 0 0 0 0 0 0 0 0 0 0 0 0 0 0 0 0 0 0 0 0 0 0 0 0 0 0
0 0 0 0 0 0 0 0 0 0 0 0 0 0 0 0 0 0 0 0 0 0 0 0 0 0 0 0 0 0 0 0 0 0 0 0 0 0
0 0 0 0 0 0 0 0 0 0 0 0 0 0 0 0 0 0 0 0 0 0 0 0 0 0 0 0 0 0 0 0 0 0 0 0 0 0
0 0 0 0 0 0 0 0 0 0 0 0 0 0 0 0 0 0 0 0 0 0 0 0 0 0 0 0 0 0 0 0 0 0 0 0 0 0
0 0 0 0 0 0 0 0 0 0 0 0 0 0 0 0 0 0 0 0 0 0 0 0 0 0 0 0 0 0 0 0 0 0 0 0 0 0
0 0 0 0 0 0 0 0 0 0 0 0 0 0 0 0 0 0 0 0 0 0 0 0 0 0 0 0 0 0 0 0 0 0 0 0 0 0
0 0 0 0 0 0 0 0 0 0 0 0 0 0 0 0 0 0 0 0 0 0 0 0 0 0 0 0 0 0 0 0 0 0 0 0 0 0
0 0 0 0 0 0 0 0 0 0 0 0 0 0 0 0 0 0 0 0 0 0 0 0 0 0 0 0 0 0 0 0 0 0 0 0 0 0
0 0 0 0 0 0 0 0 0 0 0 0 0 0 0 0 0 0 0 0 0 0 0 0 0 0 0 0 0 0 0 0 0 0 0 0 0 0
0 0 0 0 0 0 0 0 0 0 0 0 0 0 0 0 0 0 0 0 0 0 0 0 0 0 0 0 0 0 0 0 0 0 0 0 0 0
0 0 0 0 0 0 0 0 0 0 0 0 0 0 0 0 0 0 0 0 0 0 0 0 0 0 0 0 0 0 0 0 0 0 0 0 0 0
0 0 0 0 0 0 0 0 0 0 0 0 0 0 0 0 0 0 0 0 0 0 0 0 0 0 0 0 0 0 0 0 0 0 0 0 0 0
0 0 0 0 0 0 0 0 0 0 0 0 0 0 0 0 0 0 0 0 0 0 0 0 0 0 0 0 0 0 0 0 0 0 0 0 0 0
0 0 0 0 0 0 0 0 0 0 0 0 0 0 0 0 0 0 0 0 0 0 0 0 0 0 0 0 0 0 0 0 0 0 0 0 0 0
0 0 0 0 0 0 0 0 0 0 0 0 0 0 0 0 0 0 0 0 0 0 0 0 0 0 0 0 0 0 0 0 0 0 0 0 0 0
0 0 0 0 0 0 0 0 0 0 0 0 0 0 0 0 0 0 0 0 0 0 0 0 0 0 0 0 0 0 0 0 0 0 0 0 0 0
Wind_Speed
1 1 1 1 1 1 2 3 4 2 2 2 1 1 1 1 2 1 1 2 3 2 2 2 2 2 2 3 2 2 3 3 2 2 2 2 2 2
1 0 0 0 0 1 1 2 2 3 2 2 2 1 2 2 3 2 1 2 2 2 2 2 2 2 2 2 2 3 3 3 2 2 2 2 2 2
0 1 1 0 0 0 1 1 1 2 3 1 1 0 1 2 1 1 0 0 0 2 2 2 2 2 2 3 3 3 3 3 3 2 2 1 1 0
1 1 1 0 1 0 1 1 1 2 3 2 1 0 1 1 1 1 1 1 0 1 2 2 2 2 3 3 3 3 3 3 3 2 2 1 1 1
2 1 1 1 1 0 1 1 1 1 1 2 1 1 0 0 1 0 0 1 1 1 2 2 3 3 3 3 3 3 3 3 3 3 3 3 2 2
2 2 2 2 2 2 1 1 1 1 1 2 1 1 0 0 1 0 1 1 1 1 1 1 2 3 3 4 4 4 4 4 4 4 4 3 3 3
1 1 2 1 1 1 1 2 2 2 1 1 1 1 1 1 1 1 1 1 2 1 1 1 1 1 2 3 4 4 5 5 6 6 5 4 4 3
1 1 1 1 1 1 1 2 3 3 3 2 2 2 2 2 1 1 1 0 2 1 0 2 1 1 2 1 3 4 4 5 6 6 6 5 4 4
2 2 1 1 0 1 1 1 1 2 4 4 4 4 3 4 3 2 2 2 3 2 1 2 1 2 2 2 2 2 3 3 4 5 5 5 4 4
3 3 2 1 1 2 2 1 0 0 1 2 3 3 3 3 4 4 3 1 0 1 1 1 1 1 1 1 2 2 2 2 2 2 3 3 4 4
2 2 2 2 2 3 3 2 1 1 1 0 0 1 1 2 3 2 2 1 1 2 0 1 1 1 1 1 1 1 1 0 1 1 1 1 2 2
1 1 2 2 2 4 3 3 2 1 1 1 1 2 1 1 3 3 4 3 2 2 1 1 1 0 1 1 1 0 0 1 1 1 1 1 0 1
1 1 1 1 2 4 3 3 3 2 1 1 0 1 1 0 1 1 2 3 3 2 2 2 1 1 1 1 1 1 0 0 0 1 1 1 1 1
2 2 1 1 1 2 2 1 1 2 1 1 0 1 1 1 1 1 2 2 2 3 3 3 2 2 2 1 1 1 1 0 0 1 1 1 1 1
2 2 1 1 1 1 1 1 2 2 1 1 1 2 1 2 1 1 1 0 1 1 1 2 2 2 2 2 1 1 1 1 1 1 1 1 1 1
1 0 1 1 1 1 1 0 1 1 2 2 2 1 0 0 0 0 0 0 0 1 1 0 2 3 2 2 2 2 1 2 1 1 1 1 1 2
2 1 1 1 1 0 1 0 0 1 1 1 1 1 1 1 1 1 0 0 1 1 1 1 0 1 2 2 2 2 2 2 2 1 1 2 2 3
3 1 1 1 2 2 1 1 1 1 1 1 1 1 1 1 1 1 0 1 1 2 2 1 0 1 1 1 2 3 2 2 2 2 2 2 4 3
2 2 2 3 3 2 2 2 2 2 2 2 2 2 1 1 1 1 1 1 2 2 2 1 1 2 2 3 3 3 3 3 2 2 2 3 4 4
2 2 3 3 2 3 3 2 2 2 2 2 2 2 2 2 1 1 2 2 2 2 2 1 2 3 4 4 3 3 4 4 3 3 3 3 3 4
3 3 3 3 2 3 3 2 3 3 3 2 2 3 2 2 2 2 2 3 3 2 3 3 4 4 2 1 1 3 3 5 5 4 3 2 3 3
3 3 3 3 3 3 3 3 3 3 3 3 3 3 3 3 3 3 3 3 3 3 4 3 1 1 1 3 4 4 4 3 4 6 7 6 4 4
4 3 3 3 3 3 3 3 4 3 3 3 3 3 3 3 3 3 3 3 3 3 3 2 2 1 2 3 4 4 5 4 3 3 5 7 10 11
Wind_Direction
209 186 174 228 185 168 154 155 154 173 239 252 252 249 202 175 171 143 155 143 139 130 126 121 116 123 127 126 130 134 138 136 136 130 122 99 76 65
191 142 193 239 178 144 158 166 158 158 195 228 224 220 192 177 172 166 186 162 157 152 148 142 142 148 153 152 154 154 149 142 141 147 131 110 85 68
223 168 234 148 115 108 123 144 148 145 158 232 245 220 160 166 158 168 186 152 176 174 182 175 165 160 161 163 157 151 150 151 149 148 147 143 144 127
224 183 248 174 123 112 127 140 160 158 148 171 218 175 174 181 175 181 194 188 215 213 201 194 190 182 174 170 165 160 158 162 165 168 179 185 184 179
199 187 227 157 169 202 163 158 156 133 129 149 182 178 76 82 108 57 18 346 272 231 205 209 206 203 191 185 177 176 178 183 187 189 196 204 208 216
203 195 195 184 193 203 182 178 148 120 122 137 147 142 125 348 109 119 351 339 320 330 328 233 215 216 213 206 202 203 202 204 203 201 202 204 208 215
201 208 207 206 229 209 191 179 151 142 143 147 159 134 160 161 192 196 202 308 322 320 331 311 283 258 242 230 223 221 217 216 214 209 204 205 204 211
186 229 245 228 239 219 180 162 163 162 174 171 184 195 215 207 186 182 172 188 282 283 196 285 266 257 257 247 245 232 228 223 216 210 205 203 203 209
191 191 239 295 208 191 194 139 179 180 172 173 184 207 206 205 184 192 202 202 230 246 157 267 272 256 257 253 235 227 233 227 211 205 206 206 206 213
197 186 186 221 206 152 143 121 74 282 205 181 192 212 215 199 193 196 196 196 275 285 128 230 276 269 281 263 221 202 210 222 219 213 214 215 216 215
203 188 185 191 199 147 140 147 108 333 343 48 209 206 195 182 162 136 141 147 260 273 179 176 259 291 299 290 283 209 190 273 272 236 220 216 211 211
234 228 213 181 179 156 157 161 178 241 302 358 354 340 307 197 177 180 179 180 192 241 227 169 218 196 295 300 327 353 301 288 294 270 247 243 221 189
218 235 243 203 171 162 159 176 201 190 184 180 274 320 334 306 237 220 196 185 189 221 205 163 184 186 193 267 308 324 351 334 321 292 277 267 243 177
210 222 233 206 179 175 182 210 187 131 118 120 74 306 300 286 272 249 229 221 213 211 199 173 180 184 171 203 263 298 321 290 246 271 273 288 273 250
217 215 190 174 190 189 197 161 125 121 131 146 227 248 260 277 295 329 327 294 310 296 190 191 182 175 165 183 216 219 268 278 245 250 261 240 240 247
199 163 124 100 92 53 49 154 147 164 171 200 226 249 277 312 312 289 245 256 349 313 318 260 189 165 171 192 186 208 209 228 248 241 240 255 262 246
135 90 74 75 76 29 5 321 166 147 183 206 200 206 218 230 252 288 265 169 208 247 285 329 20 161 185 183 197 218 223 242 240 230 226 269 266 250
119 138 180 195 207 212 218 238 223 216 219 208 203 214 219 231 252 257 248 210 234 245 245 236 172 58 24 318 225 212 223 238 247 233 215 239 265 262
143 187 205 213 218 218 218 214 220 223 211 204 212 225 232 236 240 244 245 242 249 250 249 223 195 176 224 267 275 220 216 235 227 234 230 229 250 261
185 203 215 220 220 220 219 220 221 214 207 212 217 224 228 230 236 239 234 242 249 255 264 245 222 214 219 236 252 265 230 216 216 234 246 249 260 276
209 217 222 221 222 222 224 221 216 214 217 215 222 225 222 225 240 241 242 258 257 252 252 254 256 259 246 170 258 269 262 238 227 225 226 243 272 280
216 219 223 224 222 222 223 221 219 220 219 220 226 226 224 222 233 239 237 239 245 249 257 268 268 251 208 229 249 261 277 283 268 261 247 227 218 229
222 222 225 229 229 226 222 222 223 228 226 225 226 226 225 230 233 232 238 238 244 252 260 266 260 249 254 244 250 260 268 273 275 277 275 263 254 255